Home > Weather > Conakry > Past weeks

Flag for Guinea Weather for the Past 2 Weeks in Conakry, Guinea

Now
75 °F

Partly sunny.


Feels Like: 74 °F
Forecast: 79 / 84 °F
Wind: 2 mph from North

Location: Conakry / Gbessia

Current Time: May 6, 2016 at 8:11:26 AM

Latest Report: May 6, 2016 at 7:00 AM


Visibility: N/A

Pressure: 29.92 "Hg

Humidity: 94%

Dew Point: 73 °F

Location of ConakryLocation

Historic Weather in Conakry — Graph

°F

Conakry Temperature Yesterday

Maximum temperature yesterday: 91 °F (at 1:00 PM)
Minimum temperature yesterday: 79 °F (at 3:00 AM)
Average temperature yesterday: 84 °F

High & Low Weather Summary for the Past Weeks

 TemperatureHumidityPressure
High93 °F (Apr 21, 2:00 PM)100% (Apr 24, 6:00 AM)30.01 "Hg (Apr 24, 6:00 AM)
Low73 °F (May 4, 5:00 AM)28% (May 2, 3:00 PM)29.71 "Hg (Apr 24, 5:00 PM)
Average83 °F77%29.84 "Hg
* Reported Apr 21 10:00 AM — May 6 6:00 AM, Conakry, Weather by CustomWeather, © 2016

Note: Actual official high and low records may vary slightly from our data, if they occured in-between our weather recording intervals... More about our weather records

Advertising

Conakry Weather History for the Previous 24 Hours

Scroll right to see more
 ConditionsComfort  
Time TempWeatherWind HumidityBarometerVisibility
6:00 AM
Fri, May 6
77 °FPartly cloudy.5 mph94%29.89 "HgN/A
5:00 AM75 °FLight rain. Partly cloudy.5 mph94%29.89 "Hg5 mi
4:00 AM75 °FLight rain. Mostly cloudy.7 mph100%29.89 "Hg5 mi
3:00 AM75 °FThunderstorms. Mostly cloudy.12 mph94%29.92 "Hg5 mi
2:00 AM77 °FThunderstorms. Mostly cloudy.14 mph89%29.95 "Hg5 mi
1:00 AM79 °FThunderstorms. Partly cloudy.5 mph89%30.01 "Hg3 mi
12:00 AM81 °FPassing clouds.5 mph79%29.98 "HgN/A
11:00 PM
Thu, May 5
81 °FClear.2 mph79%29.98 "Hg10 mi
10:00 PM81 °FClear.7 mph74%29.95 "Hg10 mi
9:00 PM81 °FClear.5 mph74%29.92 "Hg10 mi
8:00 PM82 °FPassing clouds.9 mph70%29.89 "HgN/A
7:00 PM82 °FScattered clouds.9 mph66%29.83 "HgN/A
6:00 PM82 °FScattered clouds.14 mph74%29.83 "HgN/A
5:00 PM86 °FSunny.16 mph62%29.83 "Hg10 mi
4:00 PM88 °FSunny.14 mph55%29.83 "Hg10 mi
3:00 PM90 °FSunny.14 mph49%29.83 "Hg10 mi
2:00 PM91 °FSunny.12 mph46%29.86 "Hg10 mi
1:00 PM91 °FSunny.9 mph49%29.86 "Hg10 mi
12:00 PM90 °FSunny.9 mph46%29.89 "Hg10 mi
11:00 AM88 °FSunny.9 mph49%29.92 "Hg10 mi
10:00 AM86 °FSunny.7 mph52%29.92 "Hg10 mi
9:00 AM84 °FSunny.5 mph58%29.92 "Hg10 mi
8:00 AM81 °FPassing clouds.No wind79%29.89 "HgN/A
Weather by CustomWeather, © 2016

See weather overviewHow to use our weather pages